Simultaneous Nadir Overpasses (SNOs) Predictions

Prediction of SNOs between TERRA and METOP-C Satellite Orbit:

Table of predicted SNOs for the next 14.0 days since TLE Epoch: 8/15/2025
Index Date (TERRA) Time (TERRA) Lat,Lon (TERRA) SZA (TERRA ) Date (METOP-C) Time (METOP-C) Lat,Lon (METOP-C) SZA (METOP-C ) Distance(km) Time Diff (sec)
1 08/16/2025 14:02:16 76.02, 74.57 80.24 08/16/2025 14:02:00 76.02, 74.59 80.23 0.59 16
2 08/16/2025 14:51:14 -75.03,-115.03 98.81 08/16/2025 14:52:19 -75.02,-114.96 98.72 2.20 65
3 08/19/2025 02:52:00 76.45,-119.22 80.64 08/19/2025 02:51:07 76.44,-119.14 80.61 2.41 53
4 08/19/2025 03:41:05 -75.81, 50.40 98.74 08/19/2025 03:41:34 -75.83, 50.31 98.74 2.74 29
5 08/21/2025 16:30:49 -76.26,-143.37 98.33 08/21/2025 16:30:41 -76.26,-143.38 98.34 0.46 8
6 08/21/2025 17:19:53 75.45, 26.63 82.46 08/21/2025 17:21:05 75.46, 26.58 82.52 1.78 72
7 08/24/2025 05:20:30 -76.56, 23.22 97.76 08/24/2025 05:19:45 -76.55, 23.32 97.78 3.02 45
8 08/24/2025 06:09:34 75.77,-166.71 83.01 08/24/2025 06:10:09 75.76,-166.62 83.07 3.02 35
9 08/26/2025 18:59:19 76.31, -0.75 83.38 08/26/2025 18:59:18 76.29, -0.66 83.41 2.81 1
10 08/29/2025 07:49:04 76.89, 164.87 83.71 08/29/2025 07:48:28 76.91, 164.78 83.66 2.49 36



Historial Predications of SNOs between TERRA and METOP-C
